EW4573 Weather Reports


time (UTC)temp
C
wind
direction
speed
KPH
gust
KPH
rain 1hr
cm
rain 24hr
cm
rain mn
cm
humidity
%
barometer
mb
20260505111804 11 0 0.0 0.0 0.00 0.00 0.00 88 1016.6
20260505110925 11 0 0.0 0.0 0.00 0.00 0.00 89 1016.5
20260505101804 11 0 0.0 0.0 0.00 0.00 0.00 87 1016.0
20260505100904 11 0 0.0 0.0 0.00 0.00 0.00 87 1015.8
20260505100004 11 0 0.0 0.0 0.00 0.00 0.00 86 1015.8
20260505095404 11 144 0.0 1.6 0.00 0.00 0.00 86 1015.6
20260505094504 11 0 0.0 0.0 0.00 0.00 0.00 86 1015.7
20260505093604 11 0 0.0 0.0 0.00 0.00 0.00 86 1015.6
20260505092704 11 0 0.0 0.0 0.00 0.00 0.00 85 1015.6
20260505091804 11 0 0.0 0.0 0.00 0.00 0.00 86 1015.6
20260505090925 11 0 0.0 0.0 0.00 0.00 0.00 84 1015.5
20260505090004 11 0 0.0 0.0 0.00 0.00 0.00 84 1015.5
20260505085404 11 0 0.0 0.0 0.00 0.00 0.00 83 1015.5
20260505084504 11 0 0.0 0.0 0.00 0.00 0.00 83 1015.4
20260505083604 12 0 0.0 0.0 0.00 0.00 0.00 83 1015.4
20260505082725 12 0 0.0 0.0 0.00 0.00 0.00 82 1015.4
20260505081825 12 0 0.0 0.0 0.00 0.00 0.00 81 1015.3
20260505080904 12 0 0.0 0.0 0.00 0.00 0.00 81 1015.3
20260505080004 12 0 0.0 0.0 0.00 0.00 0.00 79 1015.2
20260505075404 13 0 0.0 0.0 0.00 0.00 0.00 78 1015.1
20260505074504 13 144 0.0 1.6 0.00 0.00 0.00 76 1015.2
20260505073625 13 144 0.0 1.6 0.00 0.00 0.00 75 1015.1
20260505072704 14 142 0.0 1.6 0.00 0.00 0.00 74 1015.0
20260505071825 14 0 0.0 0.0 0.00 0.00 0.00 72 1015.0
20260505070904 15 0 0.0 0.0 0.00 0.00 0.00 71 1015.0
20260505070004 15 146 0.0 1.6 0.00 0.00 0.00 69 1014.9
20260505065404 15 161 0.0 1.6 0.00 0.00 0.00 69 1015.0
20260505064504 15 181 0.0 1.6 0.00 0.00 0.00 68 1015.0
20260505063604 15 222 0.0 1.6 0.00 0.00 0.00 67 1015.0
20260505062704 16 161 0.0 4.8 0.00 0.00 0.00 67 1015.0
20260505061825 16 163 0.0 4.8 0.00 0.00 0.00 67 1014.9
20260505060904 16 185 0.0 3.2 0.00 0.00 0.00 66 1015.0
20260505060004 16 167 0.0 6.4 0.00 0.00 0.00 67 1015.0
20260505055404 16 177 0.0 4.8 0.00 0.00 0.00 66 1015.0
20260505054504 16 180 0.0 4.8 0.00 0.00 0.00 66 1015.0
20260505053603 16 180 0.0 6.4 0.00 0.00 0.00 66 1015.1
20260505052704 16 171 0.0 3.2 0.00 0.00 0.00 66 1015.2
20260505051825 16 182 1.6 8.0 0.00 0.00 0.00 66 1015.3
20260505050925 16 202 0.0 3.2 0.00 0.00 0.00 66 1015.3
20260505040904 17 175 0.0 4.8 0.00 0.00 0.00 64 1015.2
20260505040005 17 177 0.0 6.4 0.00 0.00 0.00 64 1015.3
20260505035404 17 189 1.6 6.4 0.00 0.00 0.00 64 1015.3
20260505034504 17 174 1.6 11.3 0.00 0.00 0.00 63 1015.2
20260505033625 17 166 1.6 9.7 0.00 0.00 0.00 63 1015.2
20260505032704 17 162 0.0 6.4 0.00 0.00 0.00 63 1015.2
20260505031825 18 164 1.6 8.0 0.00 0.00 0.00 63 1015.1
20260505030904 18 160 1.6 8.0 0.00 0.00 0.00 62 1015.1
20260505030004 18 178 1.6 8.0 0.00 0.00 0.00 62 1015.2
20260505025404 18 173 1.6 9.7 0.00 0.00 0.00 62 1015.1
20260505024503 18 169 1.6 11.3 0.00 0.00 0.00 62 1015.2
20260505023604 18 174 1.6 9.7 0.00 0.00 0.00 61 1015.1
20260505022725 18 163 1.6 6.4 0.00 0.00 0.00 61 1015.1
20260505021825 19 162 1.6 6.4 0.00 0.00 0.00 60 1015.0
20260505020904 19 168 1.6 6.4 0.00 0.00 0.00 59 1015.0
20260505020004 19 164 3.2 6.4 0.00 0.00 0.00 58 1015.0
20260505015403 20 160 1.6 9.7 0.00 0.00 0.00 56 1014.9
20260505014525 20 170 1.6 9.7 0.00 0.00 0.00 54 1014.8
20260505013625 20 166 1.6 9.7 0.00 0.00 0.00 49 1014.7
20260505012704 20 162 1.6 4.8 0.00 0.00 0.00 45 1014.5
20260505011825 21 186 1.6 8.0 0.00 0.00 0.00 44 1014.3
20260505010925 21 189 0.0 4.8 0.00 0.00 0.00 44 1014.1
20260505010004 21 163 0.0 8.0 0.00 0.00 0.00 44 1014.1
20260505005404 21 161 0.0 8.0 0.00 0.00 0.00 43 1014.0
20260505004504 21 160 0.0 3.2 0.00 0.00 0.00 43 1013.8
20260505003604 21 157 0.0 4.8 0.00 0.00 0.00 42 1013.8
20260505002704 21 153 0.0 4.8 0.00 0.00 0.00 41 1013.7
20260505001804 22 154 0.0 4.8 0.00 0.00 0.00 41 1013.6
20260505000904 22 168 0.0 3.2 0.00 0.00 0.00 39 1013.6
20260505000004 22 159 0.0 4.8 0.00 0.00 0.00 38 1013.6
20260504235404 22 200 0.0 6.4 0.00 0.00 0.00 39 1013.6
20260504234504 23 164 0.0 3.2 0.00 0.00 0.00 39 1013.5
20260504233603 23 161 0.0 6.4 0.00 0.00 0.00 38 1013.3
20260504232704 23 163 1.6 4.8 0.00 0.00 0.00 36 1013.2
20260504231804 24 182 1.6 8.0 0.00 0.00 0.00 35 1013.2
20260504230904 24 205 1.6 9.7 0.00 0.00 0.00 34 1013.0
20260504230025 25 170 1.6 8.0 0.00 0.00 0.00 33 1013.0
20260504225404 25 158 0.0 8.0 0.00 0.00 0.00 34 1013.0
20260504224504 25 174 1.6 8.0 0.00 0.00 0.00 33 1013.0
20260504223604 26 176 1.6 9.7 0.00 0.00 0.00 31 1013.1
20260504222704 26 264 0.0 4.8 0.00 0.00 0.00 29 1013.0
20260504221803 26 210 1.6 6.4 0.00 0.00 0.00 28 1013.1
20260504220904 26 177 1.6 4.8 0.00 0.00 0.00 29 1013.0
20260504220004 26 186 1.6 8.0 0.00 0.00 0.00 30 1013.1
20260504215425 26 171 1.6 8.0 0.00 0.00 0.00 30 1013.1
20260504214504 27 205 1.6 6.4 0.00 0.00 0.00 29 1013.2
20260504213604 27 221 1.6 6.4 0.00 0.00 0.00 28 1013.2
20260504212704 27 201 1.6 9.7 0.00 0.00 0.00 28 1013.2
20260504211804 27 168 1.6 6.4 0.00 0.00 0.00 27 1013.2
20260504210904 26 164 1.6 6.4 0.00 0.00 0.00 27 1013.2
20260504210004 26 280 1.6 12.9 0.00 0.00 0.00 29 1013.2
20260504205404 27 237 1.6 8.0 0.00 0.00 0.00 29 1013.3
20260504204504 26 205 1.6 8.0 0.00 0.00 0.00 29 1013.4
20260504203604 27 204 1.6 8.0 0.00 0.00 0.00 30 1013.4
20260504202704 27 229 1.6 8.0 0.00 0.00 0.00 31 1013.5
20260504201804 26 243 1.6 11.3 0.00 0.00 0.00 29 1013.6
20260504200904 26 218 1.6 9.7 0.00 0.00 0.00 29 1013.7
20260504200004 26 239 1.6 8.0 0.00 0.00 0.00 29 1013.9
20260504195404 26 242 1.6 11.3 0.00 0.00 0.00 32 1013.9
20260504194504 26 209 3.2 11.3 0.00 0.00 0.00 29 1013.9
20260504193604 26 184 1.6 8.0 0.00 0.00 0.00 32 1013.9
20260504192704 26 168 1.6 11.3 0.00 0.00 0.00 30 1014.1
20260504191804 26 209 1.6 8.0 0.00 0.00 0.00 31 1014.2
20260504190904 26 226 1.6 6.4 0.00 0.00 0.00 34 1014.3
20260504190004 26 236 3.2 12.9 0.00 0.00 0.00 30 1014.5
20260504185403 26 223 3.2 12.9 0.00 0.00 0.00 30 1014.6
20260504184504 26 168 1.6 12.9 0.00 0.00 0.00 32 1014.8
20260504183604 25 172 3.2 8.0 0.00 0.00 0.00 32 1014.7
20260504182704 25 169 3.2 8.0 0.00 0.00 0.00 34 1014.8
20260504181804 25 219 1.6 12.9 0.00 0.00 0.00 32 1014.8
20260504180904 25 227 1.6 12.9 0.00 0.00 0.00 35 1014.8
20260504180004 25 192 1.6 14.5 0.00 0.00 0.00 34 1015.0
20260504175404 25 168 1.6 12.9 0.00 0.00 0.00 34 1015.0
20260504174504 25 215 1.6 8.0 0.00 0.00 0.00 34 1015.1
20260504173604 24 274 1.6 6.4 0.00 0.00 0.00 36 1015.3
20260504172704 24 273 1.6 9.7 0.00 0.00 0.00 37 1015.5
20260504171804 24 236 1.6 9.7 0.00 0.00 0.00 37 1015.7
20260504170904 24 242 3.2 11.3 0.00 0.00 0.00 35 1015.9
20260504140904 16 276 0.0 6.4 0.00 0.00 0.00 65 1017.1